DELTA 1 DEB, 10828

Orbit data source: Space-Track

DELTA 1 DEB, 10828 is space debris in SSO originally from a launch on Thu, 29 Jul 1976 UTC launched from the Air Force Western Test Range (AFWTR). Debris objects in space refer to the collection of defunct objects orbiting the Earth. Examples of debris include non-operational satellites, rocket bodies, and fragments generated from explosions, collisions, or faulty payload assembly.

Loading next visibility...
Identifier
10828, 1976-077BY
Orbit
SSO
Country
Flag of USUS
Related business
Manufacturer
Unknown
Mission
Spacecraft
Bus & Motor
Unknown
Mass
Unknown
Launch date (UTC)
1976-07-29 (50 years ago)
Launch vehicle
Unknown
Launch site
Air Force Western Test Range (AFWTR)
Object type
Payload
Rocket body
Debris
Shape & HBR
Unknown shape, 0.2 m
Radar Cross Section
Medium (>0.1 m² and <1 m²)

Expand to show TLE details & history
Last TLE update: 1 day ago

TLE from 1 day ago
0 DELTA 1 DEB
1 10828U 76077BY  26254.86909034 -.00000040  00000-0  47186-4 0  9999
2 10828 102.5855 215.4440 0099242 188.5166 232.6202 12.22383143237309
Epoch: 2026-09-11T20:51Z
TLE epoch observation values (Epoch: 2026-09-11T20:51:29.405Z)
Latitude
58.00587°
Longitude
-109.14836°
Altitude
1,640.174 km
Speed
7.036 km/s
True Right ascension
12h 58m 26s
True Declination
57° 52' 05"
Sunlit
Object was in daylight at epoch
Visualization orbit readout
Latitude
Unknown
Longitude
Unknown
Altitude
Unknown
Speed
Unknown
Apparent Right ascension
Unknown
Apparent Declination
Unknown
Sunlit
N/A
Visualization observer readout
Local Sidereal Time
16:32:41
Azimuth
Unknown
Elevation
Unknown
Doppler factor
Unknown
Orbital elements
Apogee altitude
1,658.787 km
Perigee altitude
1,500.835 km
Semi-major axis
7,957.948 km
Eccentricity
0.00992
Inclination
102.5855°
RAAN
215.444°
Arg. of periapsis
188.5166°
True anomaly
231.72332°
Mean anomaly
232.6202°
Eccentric anomaly
232.17108°
Mean motion
3.05732 °/min
Orbital period
117.75 mins
BSTAR
0.000047186
Loading maneuver chart data...
Computing Atmospheric mass density...
Loading historical data...
Loading historical data...
Loading historical data...
Loading historical data...
Loading historical data...
Loading historical data...
Loading historical data...

Documentation

Showing up to 5 results
|